Location: *
(51.2167°N, 10.0667°E)
Time: 17:01:28
(UTC+00:00)

Cosmos 1862 Rocket - Pass Details

Date: 12 December 2019
Orbit: 604 x 634 km, 82.5° (Epoch: 23 January)

Event Time Altitude Azimuth Distance (km) Brightness Sun altitude
Rises 15:45:18 0° 163° (SSE) 2,866 7.2 -5.1°
Reaches altitude 10° 15:47:39 10° 153° (SSE) 1,971 6.2 -5.5°
Maximum altitude 15:51:32 32° 90° (E) 1,064 4.3 -6.0°
Drops below altitude 10° 15:55:29 10° 27° (NNE) 2,003 5.7 -6.5°
Sets 15:57:54 0° 18° (NNE) 2,920 6.6 -6.8°
Enters shadow 15:57:55 - 18° (NNE) 2,932 6.6 -6.9°
